{"data":{"norad_id":46698,"intl_designator":"2020-073AE","name":"STARLINK-1797","alt_names":[],"object_type":"PAYLOAD","status":"ACTIVE","operator":null,"country":"US","launch_date":"2020-10-18","launch_site_code":"AFETR","launch_vehicle":null,"mission":null,"orbit_class":"UNKNOWN","rcs_meters":null,"size_class":null,"mass_kg":null,"dimensions":null,"purposes":["comms"],"wikipedia_slug":null,"has_3d_model":false,"image_url":null,"decayed_at":null,"tle_current":{"epoch":"2026-09-20T06:00:02.000160Z","epoch_age_seconds":43594,"freshness":"FRESH","line1":"1 46698U 20073AE  26263.25002315  .01114589  64197-3  20783-2 0  9993","line2":"2 46698  53.0285 324.2507 0004149  26.0360 157.4874 16.00532400  6076","mean_motion":16.005324,"eccentricity":0.0004149,"inclination_deg":53.0285,"raan_deg":324.2507,"arg_perigee_deg":26.036,"mean_anomaly_deg":157.4874,"bstar":0.0020783,"rev_number":607,"period_min":89.970062461716,"perigee_km":270.18381857771,"apogee_km":275.70288505365,"semimajor_km":6651.0803518157,"source":"CELESTRAK","updated_at":"2026-09-20T09:00:38.585968Z"}}}